Find Starlink 32225

NORAD ID: 62036 Int'l Des: 2024-216 Owner: SPXS Country: US Constellation: starlink operational
LEOCIRCULAR

当前视图

正在加载3D地球...

About Starlink 32225

Starlink 32225 (NORAD 62036) is a starlink constellation satellite (v2 mini) launched Nov 21, 2024 by SPXS of US. It operates in LEO, CIRCULAR orbit with a mass of 730.00 kg.

关于 Starlink 32225

正在加载描述...

即将过境

Passes for default location (London). Set your location on the main map for personalized predictions.

高度历史

Loading altitude history...

两行轨道根数

1 62036U 24216E 26173.30756545 .00012079 00000-0 44758-3 0 9996
2 62036 43.0056 25.6662 0000884 268.8962 91.1788 15.27592304 89947
Epoch: Jun 22, 2026 • Age: 31 hours

当前状态

高度 490.7 km
速度 7.62 km/s
星下点 -30.75°S, 151.17°W
发射日期 Nov 21, 2024
运行时间 1.5 years
类型 internet

技术详情

分类 Payload
质量 730.00 kg
干质量 700.00 kg
总质量 730.00 kg
长度 0.30 m
直径 4.10 m
跨度 29.00 m
形状 Box + pan
制造商 SPXS
平台类型 Starlink V2M
阶段状态 In Orbit
所有者/国家 SPXS/US

Most Searched